Location: Baix
(44.7118°N, 4.7648°E)
Time: 15:48:49
(UTC+00:00)

Explorer 11/Cluster Stage 4 - Pass Details

Date: 02 December 2020
Orbit: 467 x 1258 km, 28.8° (Epoch: 14 January)

Event Time Altitude Azimuth Distance (km) Brightness Sun altitude
Rises 18:49:08 0° 214° (SW) 4,165 10.8 -29.1°
Reaches altitude 10° 18:53:44 10° 192° (SSW) 3,126 9.8 -29.9°
Enters shadow 18:57:04 14° 167° (SSE) 2,733 9.2 -30.5°
Maximum altitude 18:57:32 14° 163° (SSE) 2,715 - -30.6°
Drops below altitude 10° 19:01:07 10° 134° (SE) 2,915 - -31.2°
Sets 19:05:08 0° 111° (ESE) 3,708 - -31.9°
